Western Neb. Rgnl/William B. Heilig Airport
KBFF : now visible

Airfield :











YOU CAN JOIN US ON...

 
LOGIN :

Register | Disclaimer

   EN    FR    IT 

 









Legend :    VFR   Marginal VFR   IFR   Intensive IFR   Very Intensive IFR
Visi :
Ceiling :
>= 8 km
>= 3000ft
5 to 8 km
1000 to 3000 ft
1500m to 5 km
500 to 1000 ft
800 to 1500m
200 to 500 ft
< 800m
< 200 ft
Symbols :   Thunderstorms  Fog  Heavy snow  Heavy precipitations  Wind > 20 kt






- Airport Elevation : 3967 ft
- IATA code : BFF


KBFF - Western Neb. Rgnl/William B. Heilig

CURRENT METAR :
  • 230053Z AUTO 10005KT 10SM CLR 11/03 A2989 RMK AO2 SLP123 T01110028 $

EXPIRED METARs :
  • 222353Z AUTO 05004KT 10SM CLR 16/02 A2990 RMK AO2 SLP119 T01610017 10228 20161 57009
  • 222253Z AUTO 31003KT 10SM CLR 22/01 A2991 RMK AO2 SLP110 T02170006

TAF KBFF
Valid from the 23 at 00:00 until the 24 at 00:00 UTC


222320Z 2300/2324 12006KT P6SM SCT250
KZDV FIR / North America



MET'MAP, your aeronautical weather chart ! - Copyright ORBIFLY December 2007 - Disclaimer

ORBIFLY MET'MAP TEAM :

Programming & Development : Alexandra Zaïnal
Concept & original design : Baudouin d'Aumeries
Assistance for programming : Marc-Olivier Méhu
Technical & hardware support : Manuel Goepfert

Contact : metmap@orbifly.com




SOURCES & CREDITS :

   NOAA       Earth
Advisory